• In Hungary
  • List of Countries
  • For 7 days
  • Water Temperature
  • Satellite Maps
  • Weather Map
  • News
  • Weather Widgets
  • user-avatar
    Login

    Hourly Weather Kalat

    Today, 18 February, Sunday

    Time Temperature Precipitation Wind Pressure Humidity
    00:00 -21°C° 0 mm 3 mps 466 mmHg 32%
    01:00 -21°C° 0 mm 3 mps 466 mmHg 31%
    02:00 -21°C° 0 mm 3 mps 466 mmHg 30%
    03:00 -19°C° 0 mm 3 mps 466 mmHg 32%
    04:00 -19°C° 0 mm 3 mps 466 mmHg 34%
    05:00 -18°C° 0 mm 3 mps 466 mmHg 36%
    06:00 -18°C° 0 mm 3 mps 467 mmHg 41%
    07:00 -17°C° 0 mm 3 mps 467 mmHg 46%
    08:00 -17°C° 0 mm 3 mps 468 mmHg 51%
    09:00 -15°C° 0 mm 3 mps 469 mmHg 51%
    10:00 -12°C° 0 mm 2 mps 470 mmHg 52%
    11:00 -9°C° 0 mm 2 mps 471 mmHg 53%
    12:00 -8°C° 0 mm 2 mps 471 mmHg 55%
    13:00 -7°C° 0 mm 2 mps 471 mmHg 57%
    14:00 -7°C° 0 mm 2 mps 471 mmHg 59%
    15:00 -8°C° 0 mm 2 mps 471 mmHg 64%
    16:00 -9°C° 0 mm 2 mps 470 mmHg 68%
    17:00 -10°C° 0 mm 2 mps 469 mmHg 73%
    18:00 -13°C° 0 mm 2 mps 468 mmHg 72%
    19:00 -16°C° 0 mm 3 mps 467 mmHg 70%
    20:00 -18°C° 0 mm 3 mps 467 mmHg 69%
    21:00 -18°C° 0 mm 3 mps 467 mmHg 64%
    22:00 -18°C° 0 mm 3 mps 467 mmHg 60%
    23:00 -18°C° 0 mm 3 mps 467 mmHg 55%

    Tomorrow, 19 February, Monday

    Time Temperature Precipitation Wind Pressure Humidity
    00:00 -18°C° 0 mm 3 mps 467 mmHg 50%
    01:00 -18°C° 0 mm 3 mps 467 mmHg 45%
    02:00 -18°C° 0 mm 3 mps 467 mmHg 39%
    03:00 -18°C° 0 mm 3 mps 466 mmHg 36%
    04:00 -18°C° 0 mm 3 mps 466 mmHg 32%
    05:00 -18°C° 0 mm 3 mps 466 mmHg 28%
    06:00 -17°C° 0 mm 3 mps 467 mmHg 27%
    07:00 -16°C° 0 mm 3 mps 467 mmHg 26%
    08:00 -15°C° 0 mm 3 mps 468 mmHg 25%
    09:00 -13°C° 0 mm 3 mps 470 mmHg 30%
    10:00 -8°C° 0 mm 2 mps 472 mmHg 35%
    11:00 -3°C° 0 mm 1 mps 474 mmHg 40%
    12:00 -4°C° 0 mm 2 mps 474 mmHg 45%
    13:00 -4°C° 0 mm 2 mps 474 mmHg 50%
    14:00 -3°C° 0 mm 2 mps 474 mmHg 55%
    15:00 -4°C° 0 mm 2 mps 474 mmHg 61%
    16:00 -3°C° 0 mm 1 mps 473 mmHg 68%
    17:00 -3°C° 0 mm 1 mps 473 mmHg 74%
    18:00 -4°C° 0.1 mm 1 mps 472 mmHg 75%
    19:00 -7°C° 0.1 mm 2 mps 472 mmHg 76%
    20:00 -8°C° 0.1 mm 2 mps 472 mmHg 77%
    21:00 -8°C° 0.1 mm 2 mps 472 mmHg 79%
    22:00 -8°C° 0.1 mm 2 mps 472 mmHg 80%
    23:00 -8°C° 0.1 mm 2 mps 472 mmHg 82%

    Day after tomorrow, 20 February, Tuesday

    Time Temperature Precipitation Wind Pressure Humidity
    00:00 -9°C° 0 mm 2 mps 471 mmHg 81%
    01:00 -9°C° 0 mm 2 mps 471 mmHg 80%
    02:00 -10°C° 0 mm 2 mps 470 mmHg 80%
    03:00 -10°C° 0.1 mm 3 mps 470 mmHg 80%
    04:00 -10°C° 0.1 mm 3 mps 470 mmHg 80%
    05:00 -10°C° 0.1 mm 3 mps 470 mmHg 80%
    06:00 -10°C° 0 mm 3 mps 470 mmHg 80%
    07:00 -10°C° 0 mm 3 mps 471 mmHg 80%
    08:00 -10°C° 0 mm 3 mps 471 mmHg 79%
    09:00 -8°C° 0.1 mm 3 mps 472 mmHg 79%
    10:00 -6°C° 0.1 mm 3 mps 473 mmHg 79%
    11:00 -5°C° 0.1 mm 4 mps 474 mmHg 80%
    12:00 -5°C° 0.3 mm 4 mps 474 mmHg 81%
    13:00 -5°C° 0.3 mm 3 mps 474 mmHg 82%
    14:00 -5°C° 0.3 mm 3 mps 474 mmHg 83%
    15:00 -5°C° 0.6 mm 3 mps 473 mmHg 84%
    16:00 -6°C° 0.6 mm 3 mps 473 mmHg 85%
    17:00 -7°C° 0.6 mm 3 mps 472 mmHg 86%
    18:00 -7°C° 0.5 mm 3 mps 472 mmHg 86%
    19:00 -8°C° 0.5 mm 3 mps 472 mmHg 87%
    20:00 -8°C° 0.5 mm 3 mps 472 mmHg 87%
    21:00 -9°C° 0.2 mm 3 mps 472 mmHg 87%
    22:00 -10°C° 0.2 mm 3 mps 472 mmHg 87%
    23:00 -10°C° 0.2 mm 3 mps 471 mmHg 86%

    21 February, Wednesday

    Time Temperature Precipitation Wind Pressure Humidity
    00:00 -10°C° 0.3 mm 3 mps 471 mmHg 87%
    01:00 -10°C° 0.3 mm 3 mps 471 mmHg 87%
    02:00 -10°C° 0.3 mm 3 mps 471 mmHg 87%
    03:00 -12°C° 0 mm 3 mps 470 mmHg 87%
    04:00 -13°C° 0 mm 3 mps 469 mmHg 86%
    05:00 -14°C° 0 mm 3 mps 469 mmHg 85%
    06:00 -14°C° 0 mm 3 mps 469 mmHg 85%
    07:00 -14°C° 0 mm 3 mps 469 mmHg 84%
    08:00 -14°C° 0 mm 3 mps 470 mmHg 83%
    09:00 -10°C° 0.1 mm 2 mps 471 mmHg 80%
    10:00 -9°C° 0.1 mm 2 mps 472 mmHg 77%
    11:00 -7°C° 0.1 mm 2 mps 473 mmHg 75%
    12:00 -7°C° 0.1 mm 2 mps 473 mmHg 74%
    13:00 -7°C° 0.1 mm 2 mps 473 mmHg 73%
    14:00 -7°C° 0.1 mm 2 mps 472 mmHg 72%
    15:00 -7°C° 0.1 mm 2 mps 472 mmHg 74%
    16:00 -8°C° 0.1 mm 2 mps 471 mmHg 75%
    17:00 -8°C° 0.1 mm 1 mps 471 mmHg 77%
    18:00 -9°C° 0 mm 1 mps 470 mmHg 77%
    19:00 -13°C° 0 mm 2 mps 469 mmHg 77%
    20:00 -15°C° 0 mm 2 mps 468 mmHg 77%
    21:00 -16°C° 0 mm 2 mps 467 mmHg 73%
    22:00 -17°C° 0 mm 3 mps 467 mmHg 69%
    23:00 -17°C° 0 mm 3 mps 467 mmHg 65%

    22 February, Thursday

    Time Temperature Precipitation Wind Pressure Humidity
    00:00 -17°C° 0 mm 3 mps 467 mmHg 61%
    01:00 -18°C° 0 mm 3 mps 467 mmHg 57%
    02:00 -18°C° 0 mm 3 mps 466 mmHg 54%
    03:00 -18°C° 0 mm 3 mps 466 mmHg 49%
    04:00 -18°C° 0 mm 3 mps 466 mmHg 45%
    05:00 -18°C° 0 mm 3 mps 466 mmHg 41%
    06:00 -17°C° 0 mm 3 mps 467 mmHg 41%
    07:00 -16°C° 0 mm 3 mps 467 mmHg 40%
    08:00 -15°C° 0 mm 3 mps 468 mmHg 40%
    09:00 -12°C° 0 mm 3 mps 470 mmHg 42%
    10:00 -8°C° 0 mm 2 mps 471 mmHg 44%
    11:00 -5°C° 0 mm 2 mps 473 mmHg 46%
    12:00 -5°C° 0 mm 2 mps 473 mmHg 49%
    13:00 -5°C° 0 mm 2 mps 472 mmHg 51%
    14:00 -5°C° 0 mm 2 mps 472 mmHg 53%
    15:00 -6°C° 0 mm 2 mps 472 mmHg 58%
    16:00 -7°C° 0 mm 2 mps 471 mmHg 64%
    17:00 -7°C° 0 mm 2 mps 470 mmHg 69%
    18:00 -9°C° 0 mm 2 mps 470 mmHg 71%
    19:00 -10°C° 0 mm 2 mps 469 mmHg 73%
    20:00 -12°C° 0 mm 2 mps 469 mmHg 75%
    21:00 -12°C° 0.1 mm 2 mps 469 mmHg 78%
    22:00 -13°C° 0.1 mm 3 mps 469 mmHg 80%
    23:00 -13°C° 0.1 mm 3 mps 470 mmHg 82%

    23 February, Friday

    Time Temperature Precipitation Wind Pressure Humidity
    00:00 -13°C° 0.2 mm 3 mps 469 mmHg 83%
    01:00 -13°C° 0.2 mm 3 mps 469 mmHg 85%
    02:00 -13°C° 0.2 mm 3 mps 469 mmHg 86%
    03:00 -13°C° 0.2 mm 3 mps 469 mmHg 86%
    04:00 -13°C° 0.2 mm 3 mps 469 mmHg 87%
    05:00 -12°C° 0.2 mm 2 mps 470 mmHg 87%
    06:00 -12°C° 0.1 mm 2 mps 470 mmHg 86%
    07:00 -12°C° 0.1 mm 2 mps 470 mmHg 85%
    08:00 -10°C° 0.1 mm 2 mps 470 mmHg 84%
    09:00 -10°C° 0.1 mm 3 mps 471 mmHg 81%
    10:00 -9°C° 0.1 mm 3 mps 472 mmHg 78%
    11:00 -8°C° 0.1 mm 3 mps 473 mmHg 75%
    12:00 -7°C° 0.1 mm 3 mps 473 mmHg 74%
    13:00 -7°C° 0.1 mm 3 mps 473 mmHg 73%
    14:00 -7°C° 0.1 mm 3 mps 473 mmHg 73%
    15:00 -7°C° 0.1 mm 3 mps 472 mmHg 75%
    16:00 -8°C° 0.1 mm 3 mps 472 mmHg 76%
    17:00 -7°C° 0.1 mm 2 mps 471 mmHg 78%
    18:00 -9°C° 0.1 mm 2 mps 471 mmHg 79%
    19:00 -12°C° 0.1 mm 3 mps 470 mmHg 80%
    20:00 -14°C° 0.1 mm 3 mps 469 mmHg 82%
    21:00 -14°C° 0 mm 3 mps 469 mmHg 81%
    22:00 -14°C° 0 mm 3 mps 469 mmHg 81%
    23:00 -14°C° 0 mm 3 mps 469 mmHg 80%
    Show more